Dewpoint
55 56 57 55 52 51 50 50 50 49 49 50 50 50 50 50 50 50 49 49 50 52 53 51 50 51 50 54 58 59 59 60 61 62 63 62 62 62 62 61 62 62 62
54 53 52 51 51 52 51 50 50 50 49 49 48 48 48 50 50 49 48 47 47 50 52 51 49 50 49 50 54 58 58 59 59 60 62 62 61 61 61 62 62 62 61
53 52 51 50 50 50 49 48 46 46 45 46 44 46 48 47 48 48 48 47 46 46 48 51 51 52 51 49 51 55 57 56 57 58 60 62 62 61 60 60 61 62 62
52 51 49 48 49 47 46 44 45 43 44 43 42 43 42 44 47 46 48 48 47 46 45 47 50 51 53 51 47 49 52 55 55 56 58 60 61 61 61 60 60 61 61
49 48 46 45 45 44 44 44 44 43 41 40 43 41 41 44 45 47 46 47 47 47 46 47 47 48 50 51 50 48 48 50 53 53 55 58 59 60 61 60 60 60 61
44 43 42 42 43 42 41 41 41 41 40 43 43 41 42 43 44 44 41 44 46 46 46 46 46 47 47 47 49 50 50 48 49 50 50 54 57 57 61 60 60 61 61
39 39 40 39 40 38 40 41 41 39 40 43 42 40 41 41 42 37 38 42 44 41 40 40 40 42 45 47 48 48 50 50 48 49 50 53 55 56 58 58 58 58 58
37 37 37 39 41 40 41 42 42 42 43 42 40 39 36 34 38 33 35 36 38 39 38 37 39 38 41 47 48 49 47 49 50 50 50 52 55 55 55 55 53 52 53
38 38 39 40 41 42 42 42 41 39 38 40 40 37 32 31 34 33 31 34 35 36 37 37 36 39 43 45 47 48 49 48 46 49 52 50 53 53 51 50 49 49 49
39 41 42 42 42 41 40 40 41 40 40 38 38 38 38 37 32 31 32 32 33 34 35 36 36 39 43 44 44 45 46 47 47 47 46 51 51 52 51 50 49 47 46
42 42 42 41 40 40 40 40 40 39 39 38 37 37 36 35 35 32 29 29 30 32 34 34 35 39 40 41 42 43 44 44 45 46 47 46 48 52 51 50 46 45 45
41 40 39 39 39 39 39 39 39 38 38 38 38 36 34 32 31 31 30 30 31 30 32 33 33 35 39 37 36 41 42 42 43 45 46 47 47 48 50 45 43 44 43
40 39 38 38 38 38 37 37 36 36 37 36 35 36 36 35 36 36 34 32 31 31 32 32 31 31 36 34 34 39 40 39 39 40 43 45 46 47 49 43 43 43 42
38 39 39 38 37 37 36 37 36 36 36 36 35 35 36 37 36 35 34 33 29 29 29 28 30 30 32 32 34 36 38 36 38 37 39 42 42 43 45 42 40 40 41
38 39 38 38 38 38 37 37 36 35 35 35 34 35 35 35 35 34 34 34 31 25 24 26 28 30 30 32 33 31 36 38 35 37 38 38 41 40 41 44 42 39 38
37 37 37 37 37 37 37 37 34 33 33 33 33 32 30 28 26 26 26 27 26 25 22 26 27 30 30 31 25 25 29 37 37 35 34 37 38 41 41 40 39 39 38
36 36 36 37 37 34 33 33 32 29 25 24 24 23 22 23 22 22 22 23 23 24 21 22 26 28 28 22 20 23 25 25 33 36 35 32 35 38 40 40 39 38 36
34 35 35 36 35 31 28 26 25 25 23 22 22 22 22 21 21 22 22 22 23 23 23 23 24 24 22 20 22 23 23 25 26 27 30 36 34 35 37 39 38 37 38
35 35 35 34 31 26 25 24 23 22 22 22 23 22 21 20 21 22 22 23 24 25 25 24 23 22 21 23 22 22 22 22 23 23 24 26 28 34 36 33 34 34 36
36 34 34 31 27 25 23 22 23 22 22 22 23 22 20 21 21 21 21 25 25 26 25 24 24 23 22 22 23 21 20 22 21 23 24 26 26 27 28 31 36 34 34
34 34 35 31 26 24 22 23 23 22 22 22 23 22 21 22 22 20 19 21 22 24 23 23 23 23 22 21 21 20 20 21 22 23 22 23 25 28 27 28 29 31 36
35 36 32 27 25 23 25 25 26 25 25 24 23 22 22 23 22 20 19 21 22 23 23 22 21 22 22 22 22 21 21 21 21 23 24 24 25 24 25 26 27 29 29
33 30 26 26 23 24 26 27 27 27 26 25 24 23 22 20 20 20 21 22 22 23 24 24 23 22 23 23 22 22 22 22 22 23 23 22 24 25 26 26 28 29 30
30 29 25 24 22 23 27 27 26 24 22 22 21 22 21 21 21 20 22 23 23 24 23 24 24 25 26 27 25 24 24 24 24 25 27 23 24 23 24 24 26 26 29
32 25 25 23 23 24 24 25 24 21 19 19 20 20 19 18 19 20 23 22 22 22 22 23 23 23 23 23 27 28 25 23 22 23 25 25 23 22 23 23 25 27 27
26 25 24 24 25 20 21 21 20 18 16 18 19 18 18 19 21 25 23 23 21 21 23 22 23 23 23 24 24 24 23 22 21 19 21 22 22 23 21 22 24 26 27
Wind_Speed
6 4 3 4 3 3 4 5 7 9 10 11 11 10 13 14 14 13 13 17 17 17 16 17 18 17 16 13 13 14 14 15 15 15 14 14 15 17 19 21 20 20 18
8 6 5 3 3 6 7 7 9 10 12 12 15 14 15 13 12 13 13 14 16 18 20 21 22 20 19 17 14 14 15 15 16 16 15 14 16 18 18 18 19 21 22
7 7 3 4 6 6 7 8 8 8 12 12 14 15 13 16 16 14 13 13 15 17 17 20 22 23 22 20 16 14 15 15 16 17 17 16 16 16 17 19 20 19 21
4 5 6 7 7 8 9 10 10 10 10 12 13 13 15 14 15 16 13 12 12 13 15 16 19 22 23 24 23 19 18 17 16 16 16 15 16 17 17 17 16 16 16
11 10 10 10 11 11 12 9 6 9 12 15 12 12 13 14 14 11 12 14 14 14 13 16 18 18 21 25 27 26 22 20 19 18 16 15 14 16 17 15 16 16 13
14 14 13 13 11 11 12 11 7 9 8 7 12 13 13 12 10 8 13 11 12 12 12 15 16 16 20 21 23 28 29 25 22 21 19 18 15 15 13 9 9 9 10
12 12 11 12 11 11 9 9 7 10 7 10 5 11 8 7 3 10 10 9 12 13 13 13 12 12 14 20 20 21 26 29 28 24 21 20 18 14 11 9 8 8 6
10 9 8 7 8 9 10 10 9 7 4 8 7 9 8 11 4 16 10 12 12 9 14 15 13 15 12 12 15 20 20 23 29 29 25 22 21 18 15 13 10 7 6
6 6 7 7 8 7 7 6 6 8 9 4 5 3 7 5 14 3 15 8 13 14 15 16 16 14 13 12 13 15 19 20 21 24 27 24 22 21 18 16 13 10 7
5 6 7 6 5 5 7 7 8 7 6 8 6 3 4 6 5 9 4 9 15 17 17 15 14 14 12 11 14 16 21 19 21 21 22 22 23 25 22 19 16 13 10
5 6 6 7 7 6 5 5 6 6 5 6 5 4 4 7 5 4 12 6 8 7 10 14 14 11 12 12 12 14 17 22 20 19 19 20 21 26 24 21 18 15 11
4 5 5 4 3 2 2 2 3 5 5 5 5 5 4 5 7 8 8 11 12 7 7 12 12 13 11 12 15 15 15 19 22 19 16 16 13 23 26 22 18 16 13
1 1 1 1 2 3 4 4 3 5 4 4 5 6 8 10 7 7 9 11 11 12 7 5 12 15 11 13 15 14 12 12 16 24 24 15 11 11 17 18 18 15 13
4 6 5 6 7 7 6 6 5 6 7 8 10 9 10 11 8 10 8 7 14 11 8 9 6 13 12 13 14 16 12 9 10 16 22 22 10 10 12 10 8 10 11
7 9 9 8 9 9 10 9 7 8 8 10 12 11 11 10 7 8 6 10 8 13 17 13 9 6 14 13 13 13 11 9 6 7 12 22 21 6 7 5 5 2 7
7 8 9 8 9 9 9 7 8 8 8 7 5 4 3 3 5 8 8 8 13 13 16 9 12 9 12 8 8 11 12 12 11 5 2 7 20 13 11 2 4 9 10
9 10 9 8 7 7 4 5 6 2 3 3 5 6 7 8 8 11 12 12 13 12 17 14 12 10 6 6 11 10 9 10 11 15 12 5 5 14 14 10 13 13 9
7 8 8 9 9 5 3 1 2 3 4 4 6 8 11 10 13 12 13 14 14 14 14 19 11 10 9 7 5 6 8 8 9 9 15 15 12 10 11 13 18 17 17
9 9 8 9 8 4 4 3 3 2 3 6 8 9 11 13 14 13 14 14 13 12 12 13 13 7 8 7 6 5 7 9 9 12 12 10 10 7 19 16 13 14 13
11 9 11 9 6 5 4 3 2 3 7 8 8 9 11 12 13 15 14 11 12 12 9 10 10 8 9 10 5 9 11 4 12 10 11 11 10 8 6 5 15 18 16
9 3 8 11 7 4 3 1 4 7 10 11 10 11 11 12 18 15 13 15 14 13 12 12 13 10 9 10 12 6 8 10 11 12 13 12 7 2 2 3 4 6 10
8 8 7 2 6 2 2 4 7 9 12 12 13 12 13 15 14 16 20 21 19 17 16 14 15 15 14 12 11 12 10 9 6 6 4 6 3 10 8 7 10 10 9
0 2 5 2 3 2 4 9 10 9 10 11 13 13 13 11 17 16 18 20 20 21 19 17 18 16 16 12 12 12 11 10 10 13 7 13 5 9 10 10 12 13 14
6 6 1 4 3 4 6 7 7 7 9 11 12 13 13 15 14 17 17 17 14 13 16 13 14 15 15 14 15 14 13 10 12 15 9 9 11 15 14 14 17 18 18
8 4 4 2 2 4 7 5 4 7 10 12 12 12 14 15 17 21 19 19 19 18 16 19 20 20 20 20 16 10 9 9 12 11 8 9 10 9 7 15 14 18 19
6 6 4 2 1 2 6 6 9 8 12 11 11 13 16 16 21 19 14 15 16 16 15 14 13 14 15 14 16 14 12 16 12 10 9 11 8 7 5 4 7 11 11
Wind_Direction
185 177 211 251 258 290 315 351 348 340 337 335 337 331 323 316 306 294 290 284 275 265 265 269 273 271 271 260 247 259 269 277 278 285 290 282 265 250 240 238 236 230 223
187 185 196 229 4 16 8 8 2 0 4 5 356 350 338 332 324 319 311 302 287 275 270 274 271 269 268 267 257 244 258 268 274 276 278 283 278 265 252 244 239 236 232
196 188 187 40 20 14 23 30 25 17 8 5 355 343 342 336 329 324 317 313 307 300 283 271 272 272 267 265 262 246 243 256 266 270 273 276 280 278 267 254 247 241 241
31 44 52 36 18 30 25 16 14 2 4 3 343 333 328 326 323 326 334 336 331 321 315 303 289 278 269 265 264 258 251 244 253 262 264 266 273 278 277 269 258 251 248
56 61 51 36 27 33 32 16 13 11 348 347 336 323 318 321 317 336 6 9 10 14 3 348 338 315 297 283 274 268 258 251 241 245 250 255 263 269 268 267 263 255 253
64 68 58 47 44 40 25 13 353 342 335 339 320 311 314 306 329 26 5 15 23 34 29 17 6 353 337 315 295 280 274 260 248 241 238 241 246 265 263 261 259 246 246
68 66 58 45 34 27 3 355 339 338 331 346 327 326 293 297 60 9 3 16 24 10 10 4 352 347 340 342 331 309 289 275 263 251 241 230 228 233 251 255 250 235 218
76 70 61 43 27 14 16 19 15 338 325 11 344 323 337 314 350 337 343 354 12 4 358 352 348 339 334 328 329 332 318 302 280 266 249 234 217 213 220 230 233 231 231
83 74 63 57 52 48 35 12 2 358 331 323 12 342 324 298 331 315 326 15 11 2 351 341 344 341 337 342 339 337 334 328 313 295 286 250 225 207 209 216 218 214 218
59 78 87 85 76 60 27 357 347 337 341 327 332 349 279 294 313 315 3 353 1 347 336 328 333 334 338 342 349 1 349 338 327 309 297 293 242 215 206 207 213 210 201
69 59 60 55 42 26 12 5 1 357 344 313 306 317 322 312 284 270 308 307 311 323 319 323 329 327 342 350 344 349 3 3 337 325 300 289 283 245 219 208 210 210 195
53 65 64 51 37 25 359 336 324 314 300 296 284 267 261 291 298 290 293 310 309 301 299 311 325 332 323 343 340 341 9 21 360 341 317 286 290 278 236 200 206 197 190
199 222 299 305 268 262 268 257 276 276 268 281 286 283 267 259 263 282 291 307 310 316 297 280 301 318 312 328 330 325 331 10 16 2 350 311 333 347 289 186 195 190 184
219 234 246 241 245 253 270 263 274 280 284 283 288 278 277 267 271 265 263 274 299 294 302 286 281 299 309 318 321 324 313 340 14 4 355 344 336 325 277 0 168 175 172
241 242 239 249 256 264 277 283 278 277 268 275 275 269 262 278 288 281 299 285 277 306 301 300 284 261 299 314 323 340 314 303 345 21 354 340 327 321 342 258 330 275 187
240 242 247 241 249 257 270 269 271 281 293 313 326 342 353 334 328 319 316 300 297 284 291 281 276 272 284 297 318 347 335 298 276 250 85 341 325 289 293 273 303 309 297
244 244 244 250 245 260 291 293 297 339 78 69 22 2 335 331 315 312 296 290 280 278 279 287 268 261 251 279 311 324 330 326 306 274 258 217 286 316 259 233 216 215 238
255 280 298 295 293 312 326 279 137 72 38 360 338 324 314 316 302 292 292 288 280 274 272 282 283 262 247 274 262 303 319 326 342 339 2 245 210 219 272 257 256 252 233
276 288 287 275 264 251 180 131 111 65 353 305 304 302 305 307 304 303 298 291 283 281 282 282 282 265 265 264 261 286 294 304 305 309 318 330 357 253 233 221 247 261 256
274 285 292 279 268 204 162 143 98 341 300 294 293 294 301 298 297 297 297 294 304 300 290 290 290 277 264 262 260 280 295 283 298 300 297 290 295 303 301 284 243 242 253
285 36 322 288 251 179 178 124 330 306 294 299 296 294 294 289 299 301 307 303 294 286 285 280 278 266 251 259 265 266 278 291 290 275 276 273 259 234 303 327 285 244 228
327 327 292 285 249 213 179 321 292 288 290 294 298 294 294 296 292 301 304 298 292 291 284 276 273 265 260 250 261 264 274 286 299 264 269 284 278 288 270 263 263 270 275
17 202 239 187 212 324 299 315 327 324 313 309 306 304 305 306 307 299 297 296 292 285 281 277 275 272 271 250 250 260 254 250 249 261 269 283 266 267 263 255 250 251 251
265 286 264 125 62 17 352 357 25 3 334 319 309 303 306 303 300 303 302 297 292 287 279 272 261 266 265 265 242 244 246 256 270 269 225 264 259 263 266 263 261 256 247
270 185 147 111 35 7 5 4 0 335 325 316 309 309 310 315 309 310 304 288 283 282 280 277 276 279 278 276 267 236 218 243 264 264 205 231 261 261 258 265 255 250 248
167 146 148 72 60 16 354 357 346 336 330 321 320 317 315 319 313 321 336 320 303 298 290 280 277 272 269 265 262 251 241 243 246 290 240 215 249 211 290 266 278 257 247